Stündliche Wetter Kyzan

Heute, 10 Mai, Montag

Zeit Temperatur Niederschläge Wind Luftdruck Luftfeuchtigkeit
00:00 +23°C° 0 mm 4 m/S 758 mmHg 25%
01:00 +22°C° 0 mm 4 m/S 758 mmHg 29%
02:00 +22°C° 0 mm 4 m/S 758 mmHg 30%
03:00 +21°C° 0 mm 4 m/S 758 mmHg 31%
04:00 +21°C° 0 mm 4 m/S 758 mmHg 32%
05:00 +21°C° 0 mm 4 m/S 758 mmHg 35%
06:00 +21°C° 0 mm 3 m/S 758 mmHg 39%
07:00 +21°C° 0 mm 3 m/S 758 mmHg 42%
08:00 +21°C° 0.1 mm 3 m/S 759 mmHg 48%
09:00 +21°C° 0.1 mm 4 m/S 759 mmHg 55%
10:00 +20°C° 0 mm 5 m/S 759 mmHg 65%
11:00 +19°C° 0.1 mm 6 m/S 760 mmHg 67%
12:00 +17°C° 0.1 mm 6 m/S 761 mmHg 70%
13:00 +16°C° 0.1 mm 7 m/S 761 mmHg 72%
14:00 +15°C° 0.4 mm 7 m/S 761 mmHg 72%
15:00 +13°C° 0.4 mm 8 m/S 762 mmHg 72%
16:00 +12°C° 0.4 mm 9 m/S 762 mmHg 72%
17:00 +12°C° 0.1 mm 8 m/S 762 mmHg 71%
18:00 +12°C° 0.1 mm 7 m/S 763 mmHg 70%
19:00 +12°C° 0.1 mm 7 m/S 763 mmHg 69%
20:00 +13°C° 0 mm 6 m/S 764 mmHg 66%
21:00 +13°C° 0 mm 5 m/S 764 mmHg 63%
22:00 +14°C° 0 mm 4 m/S 764 mmHg 60%
23:00 +13°C° 0 mm 4 m/S 764 mmHg 59%

Morgen, 11 Mai, Dienstag

Zeit Temperatur Niederschläge Wind Luftdruck Luftfeuchtigkeit
00:00 +13°C° 0 mm 4 m/S 764 mmHg 57%
01:00 +13°C° 0 mm 3 m/S 765 mmHg 56%
02:00 +13°C° 0 mm 3 m/S 765 mmHg 55%
03:00 +13°C° 0 mm 3 m/S 765 mmHg 54%
04:00 +13°C° 0 mm 3 m/S 765 mmHg 53%
05:00 +14°C° 0 mm 3 m/S 765 mmHg 53%
06:00 +14°C° 0 mm 3 m/S 765 mmHg 53%
07:00 +14°C° 0 mm 4 m/S 765 mmHg 53%
08:00 +14°C° 0 mm 4 m/S 765 mmHg 50%
09:00 +15°C° 0 mm 5 m/S 765 mmHg 48%
10:00 +15°C° 0 mm 6 m/S 765 mmHg 45%
11:00 +16°C° 0 mm 5 m/S 765 mmHg 41%
12:00 +17°C° 0 mm 5 m/S 765 mmHg 38%
13:00 +19°C° 0 mm 5 m/S 765 mmHg 34%
14:00 +21°C° 0 mm 4 m/S 764 mmHg 35%
15:00 +23°C° 0 mm 4 m/S 763 mmHg 35%
16:00 +25°C° 0 mm 4 m/S 763 mmHg 35%
17:00 +25°C° 0.1 mm 4 m/S 762 mmHg 38%
18:00 +25°C° 0.1 mm 4 m/S 762 mmHg 41%
19:00 +25°C° 0.1 mm 4 m/S 761 mmHg 43%
20:00 +22°C° 0 mm 4 m/S 761 mmHg 49%
21:00 +21°C° 0 mm 4 m/S 761 mmHg 55%
22:00 +20°C° 0 mm 4 m/S 761 mmHg 61%
23:00 +20°C° 0 mm 3 m/S 761 mmHg 61%

übermorgen, 12 Mai, Mittwoch

Zeit Temperatur Niederschläge Wind Luftdruck Luftfeuchtigkeit
00:00 +20°C° 0 mm 3 m/S 761 mmHg 60%
01:00 +20°C° 0 mm 2 m/S 761 mmHg 59%
02:00 +19°C° 0 mm 3 m/S 761 mmHg 62%
03:00 +18°C° 0 mm 3 m/S 761 mmHg 64%
04:00 +17°C° 0 mm 3 m/S 762 mmHg 66%
05:00 +18°C° 0 mm 3 m/S 762 mmHg 62%
06:00 +19°C° 0 mm 3 m/S 762 mmHg 57%
07:00 +19°C° 0 mm 2 m/S 762 mmHg 53%
08:00 +21°C° 0 mm 3 m/S 763 mmHg 48%
09:00 +23°C° 0 mm 4 m/S 763 mmHg 42%
10:00 +26°C° 0 mm 4 m/S 763 mmHg 37%
11:00 +27°C° 0.1 mm 4 m/S 763 mmHg 37%
12:00 +27°C° 0.1 mm 5 m/S 763 mmHg 36%
13:00 +28°C° 0.1 mm 5 m/S 763 mmHg 35%
14:00 +29°C° 0 mm 4 m/S 763 mmHg 33%
15:00 +29°C° 0 mm 4 m/S 762 mmHg 31%
16:00 +30°C° 0 mm 3 m/S 762 mmHg 28%
17:00 +30°C° 0 mm 3 m/S 762 mmHg 27%
18:00 +31°C° 0 mm 3 m/S 762 mmHg 25%
19:00 +31°C° 0 mm 3 m/S 762 mmHg 24%
20:00 +30°C° 0 mm 5 m/S 762 mmHg 25%
21:00 +29°C° 0 mm 7 m/S 762 mmHg 26%
22:00 +28°C° 0 mm 9 m/S 762 mmHg 28%
23:00 +27°C° 0 mm 9 m/S 762 mmHg 30%

13 Mai, Donnerstag

Zeit Temperatur Niederschläge Wind Luftdruck Luftfeuchtigkeit
00:00 +26°C° 0 mm 9 m/S 762 mmHg 31%
01:00 +24°C° 0 mm 9 m/S 762 mmHg 33%
02:00 +23°C° 0 mm 8 m/S 762 mmHg 33%
03:00 +23°C° 0 mm 7 m/S 763 mmHg 34%
04:00 +22°C° 0 mm 6 m/S 763 mmHg 35%
05:00 +22°C° 0 mm 6 m/S 763 mmHg 33%
06:00 +23°C° 0 mm 7 m/S 763 mmHg 32%
07:00 +23°C° 0 mm 7 m/S 763 mmHg 30%
08:00 +26°C° 0 mm 7 m/S 763 mmHg 27%
09:00 +29°C° 0 mm 8 m/S 763 mmHg 23%
10:00 +32°C° 0 mm 8 m/S 763 mmHg 20%
11:00 +33°C° 0 mm 8 m/S 763 mmHg 18%
12:00 +34°C° 0 mm 7 m/S 763 mmHg 17%
13:00 +35°C° 0 mm 7 m/S 763 mmHg 16%
14:00 +35°C° 0 mm 7 m/S 763 mmHg 14%
15:00 +36°C° 0 mm 7 m/S 762 mmHg 13%
16:00 +36°C° 0 mm 7 m/S 762 mmHg 11%
17:00 +35°C° 0 mm 8 m/S 762 mmHg 12%
18:00 +34°C° 0 mm 8 m/S 762 mmHg 12%
19:00 +34°C° 0 mm 8 m/S 763 mmHg 12%
20:00 +32°C° 0 mm 8 m/S 763 mmHg 12%
21:00 +31°C° 0 mm 9 m/S 763 mmHg 13%
22:00 +28°C° 0 mm 9 m/S 764 mmHg 13%
23:00 +27°C° 0 mm 8 m/S 764 mmHg 14%

14 Mai, Freitag

Zeit Temperatur Niederschläge Wind Luftdruck Luftfeuchtigkeit
00:00 +26°C° 0 mm 8 m/S 764 mmHg 16%
01:00 +23°C° 0 mm 7 m/S 764 mmHg 18%
02:00 +23°C° 0 mm 6 m/S 764 mmHg 19%
03:00 +22°C° 0 mm 6 m/S 765 mmHg 21%
04:00 +21°C° 0 mm 5 m/S 765 mmHg 22%
05:00 +22°C° 0 mm 5 m/S 765 mmHg 22%
06:00 +22°C° 0 mm 6 m/S 765 mmHg 21%
07:00 +23°C° 0 mm 6 m/S 765 mmHg 21%
08:00 +26°C° 0 mm 7 m/S 765 mmHg 18%
09:00 +28°C° 0 mm 7 m/S 765 mmHg 14%
10:00 +32°C° 0 mm 8 m/S 766 mmHg 11%
11:00 +33°C° 0 mm 8 m/S 765 mmHg 10%
12:00 +34°C° 0 mm 8 m/S 765 mmHg 9%
13:00 +35°C° 0 mm 7 m/S 765 mmHg 8%
14:00 +35°C° 0 mm 7 m/S 765 mmHg 8%
15:00 +35°C° 0 mm 7 m/S 764 mmHg 8%
16:00 +35°C° 0 mm 7 m/S 764 mmHg 8%
17:00 +35°C° 0 mm 6 m/S 764 mmHg 9%
18:00 +34°C° 0 mm 6 m/S 764 mmHg 10%
19:00 +34°C° 0 mm 6 m/S 764 mmHg 11%
20:00 +32°C° 0 mm 6 m/S 764 mmHg 14%
21:00 +30°C° 0 mm 6 m/S 764 mmHg 18%
22:00 +29°C° 0 mm 7 m/S 764 mmHg 21%
23:00 +28°C° 0 mm 6 m/S 764 mmHg 24%

15 Mai, Samstag

Zeit Temperatur Niederschläge Wind Luftdruck Luftfeuchtigkeit
00:00 +27°C° 0 mm 6 m/S 764 mmHg 27%
01:00 +26°C° 0 mm 6 m/S 764 mmHg 30%
02:00 +25°C° 0 mm 5 m/S 764 mmHg 32%
03:00 +23°C° 0 mm 5 m/S 764 mmHg 34%
04:00 +22°C° 0 mm 4 m/S 764 mmHg 36%
05:00 +23°C° 0 mm 5 m/S 764 mmHg 35%
06:00 +23°C° 0 mm 5 m/S 764 mmHg 33%
07:00 +25°C° 0 mm 5 m/S 765 mmHg 32%
08:00 +27°C° 0 mm 6 m/S 764 mmHg 28%
09:00 +29°C° 0 mm 7 m/S 764 mmHg 24%
10:00 +32°C° 0 mm 8 m/S 764 mmHg 20%
11:00 +33°C° 0 mm 8 m/S 764 mmHg 19%
12:00 +34°C° 0 mm 8 m/S 764 mmHg 18%
13:00 +35°C° 0 mm 7 m/S 763 mmHg 17%
14:00 +35°C° 0 mm 7 m/S 763 mmHg 16%
15:00 +35°C° 0 mm 6 m/S 763 mmHg 16%
16:00 +35°C° 0 mm 6 m/S 762 mmHg 15%
17:00 +35°C° 0 mm 6 m/S 762 mmHg 15%
18:00 +34°C° 0 mm 6 m/S 762 mmHg 16%
19:00 +34°C° 0 mm 6 m/S 762 mmHg 16%
20:00 +33°C° 0 mm 6 m/S 762 mmHg 18%
21:00 +30°C° 0 mm 6 m/S 762 mmHg 20%
22:00 +29°C° 0 mm 6 m/S 763 mmHg 22%
23:00 +28°C° 0 mm 5 m/S 763 mmHg 24%
Mehr zeigen

Wir brauchen deine Erlaubnis

Meteoprog und unser Service Anbieter werden persönliche Daten aufbewahren, so wie Cookies, Geräte Bezeichnung oder ähnliche Technologien von deinem Gerät und Prozess, so wie Persönliche Daten Inhalte und Werbungen, genauso wie social Media und den Verkehr zu analysieren.

  • Aufbewahrung und/oder Zugang zu deiner Geräte Informationen.

    Cookies, Geräte Bezeichnung oder andere Informationen, können aufbewahrt oder Zugang zu deinem Gerät erhalten, für den Grund, der oben angegeben wird.

  • Personalisierte Werbung und Inhalte, Messungen, Einblick in das Publikum und Produkt Entwicklung.

    Werbungen und Inhalte können personalisiert werden, basierend auf ein Profil. Mehr Daten können besser personalisierte Werbungen und Inhalte hinzufügen. Werbung und Inhalte können gezeigt und gemessen werden. Einblicke über das Publikum, welche die Werbung gesehen haben und den Inhalt, können abgeleitet werden. So wie Daten können genutzt werden, um es zu verbessern oder die Benutzer Erfahrung zu verbessern das System und die Software.

Wenn du “Ich stimme zu” klickst, erlaubst du uns, die Cookies zu benutzen die Geräte Bezeichnung, den Web oder ähnliche Technologien zu benutzen. Deine Settings, können in deinem Gerät bei deinem Browser geändert werden.

Für den bestimmten Zweck, berechtigten Interessen beruhen darauf, mehr als auf den Inhalt. Du kannst mehr darüber in unseren Privaten und Cookie Politik lesen.